User: anonymous   Login
Location: Santa Barbara
(34.4500°N, 119.7700°W)
Time: 04:10:07
(UTC-07:00)
Language:

Cosmos 1892 Rocket - Orbit

View from above orbital plane
View from above orbital plane
View from above satellite
View from above satellite

Ground track
Ground track

The orbit data is extracted from the following two-line orbital elements,

1 18422U 87088B   17083.95186771 +.00000109 +00000-0 +10466-4 0  9992
2 18422 082.5094 255.7969 0019556 001.2318 111.4944 14.82915387568248
Epoch (UTC): 24 March 2017 22:50:41
Eccentricity: 0.0019556
inclination: 82.5094°
perigee height: 606 km
apogee height: 634 km
right ascension of ascending node: 255.7969°
argument of perigee: 1.2318°
revolutions per day: 14.82915387
mean anomaly at epoch: 111.4944°
orbit number at epoch: 56824

The dashed part of the orbit path shows where the satellite is in the earth's shadow,  

DLR